Weather History for Deer Park, WA

Change the Weather History Date:

Monday, November 28, 2011

  Actual Average Record
Temperature  
Mean Temperature 31 °F 29 °F  
Max Temperature 40 °F 36 °F 43 °F (1999)
Min Temperature 22 °F 23 °F 3 °F (2006)
Degree Days  
Heating Degree Days 34 36  
Month to date heating degree days 898 864  
Since 1 July heating degree days 1852 1932  
Cooling Degree Days 0 0  
Month to date cooling degree days 0 0  
Year to date cooling degree days 96 187  
Moisture  
Dew Point 29 °F    
Average Humidity 88    
Maximum Humidity 100    
Minimum Humidity 76    
Precipitation  
Precipitation 0.00 in 0.12 in 0.86 in (2001)
Month to date precipitation 2.23 3.08  
Year to date precipitation 18.10 19.14  
Sea Level Pressure  
Sea Level Pressure 30.41 in    
Wind  
Wind Speed 2 mph (WSW)    
Max Wind Speed 12 mph    
Max Gust Speed 14 mph    
Visibility 9 miles    
Events      
T = Trace of Precipitation, MM = Missing Value Source: NWS Daily Summary

Daily Weather History Graph

Daily Weather History Graph

Search for Another Location

Airport:

Trip Planner

Search our weather history database for the weather conditions in past years. The results will help you decide how hot, cold, wet, or windy it might be!

Date:

Astronomy

Nov. 28, 2011 Rise Set
Actual Time 7:14 AM PST 4:00 PM PST
Civil Twilight 6:39 AM PST 4:35 PM PST
Nautical Twilight 6:00 AM PST 5:14 PM PST
Astronomical Twilight 5:23 AM PST 5:51 PM PST
Moon 10:24 AM PST (11/28) 7:57 PM PST (11/28)
Length of Visible Light 9h 56m
Length of Day
8h 46m
Waxing Crescent, 16% of the Moon is Illuminated
Nov 28
Waxing Crescent
Dec 2
First Quarter
Dec 10
Full
Dec 17
Last Quarter
Dec 24
New

Hourly Weather History & Observations

Time (PST) Temp. Windchill Dew Point Humidity Pressure Visibility Wind Dir Wind Speed Gust Speed Precip Events Conditions
12:53 AM 34.0 °F 27.2 °F 28.9 °F 82% 30.27 in 10.0 mi South 8.1 mph - N/A   Clear
1:53 AM 30.0 °F - 27.0 °F 88% 30.31 in 10.0 mi Calm Calm - N/A   Clear
2:53 AM 27.0 °F - 26.1 °F 96% 30.33 in 10.0 mi Calm Calm - N/A   Clear
3:31 AM 28.4 °F 24.6 °F 24.8 °F 86% 30.29 in 10.0 mi SSE 3.5 mph - N/A   Mostly Cloudy
3:53 AM 34.0 °F - 32.0 °F 92% 30.34 in 10.0 mi Calm Calm - N/A   Overcast
4:26 AM 35.6 °F 32.8 °F 33.8 °F 93% 30.32 in 10.0 mi SSW 3.5 mph - N/A   Overcast
4:53 AM 34.0 °F - 33.1 °F 96% 30.38 in 10.0 mi Calm Calm - N/A   Overcast
5:18 AM 33.8 °F 30.8 °F 32.0 °F 93% 30.34 in 10.0 mi NNW 3.5 mph - N/A   Overcast
5:53 AM 34.0 °F 31.0 °F 32.0 °F 92% 30.39 in 10.0 mi North 3.5 mph - N/A   Overcast
6:53 AM 35.1 °F - 33.1 °F 92% 30.41 in 10.0 mi Calm Calm - N/A   Overcast
7:48 AM 35.6 °F - 33.8 °F 93% 30.37 in 10.0 mi Calm Calm - N/A   Overcast
7:53 AM 36.0 °F - 33.1 °F 89% 30.42 in 10.0 mi Calm Calm - N/A   Overcast
8:53 AM 37.0 °F 34.5 °F 33.1 °F 86% 30.44 in 10.0 mi SSE 3.5 mph - N/A   Overcast
9:53 AM 37.0 °F 31.6 °F 33.1 °F 86% 30.46 in 10.0 mi South 6.9 mph - N/A   Overcast
10:04 AM 37.4 °F 32.8 °F 33.8 °F 87% 30.42 in 10.0 mi SSW 5.8 mph - N/A   Overcast
10:53 AM 37.0 °F 32.4 °F 33.1 °F 86% 30.47 in 10.0 mi SSW 5.8 mph - N/A   Overcast
11:53 AM 37.9 °F 34.4 °F 32.0 °F 79% 30.46 in 10.0 mi South 4.6 mph - N/A   Overcast
12:53 PM 37.9 °F - 32.0 °F 79% 30.46 in 10.0 mi Calm Calm - N/A   Overcast
1:53 PM 39.9 °F - 33.1 °F 77% 30.46 in 10.0 mi Calm Calm - N/A   Overcast
2:53 PM 39.0 °F 35.7 °F 33.1 °F 79% 30.46 in 10.0 mi NW 4.6 mph - N/A   Mostly Cloudy
3:38 PM 35.6 °F 32.8 °F 30.2 °F 81% 30.40 in 10.0 mi NNW 3.5 mph - N/A   Scattered Clouds
3:53 PM 33.1 °F 28.7 °F 30.0 °F 89% 30.46 in 10.0 mi North 4.6 mph - N/A   Partly Cloudy
4:53 PM 28.0 °F - 26.1 °F 92% 30.47 in 10.0 mi Calm Calm - N/A   Partly Cloudy
5:53 PM 28.9 °F - 27.0 °F 92% 30.46 in 10.0 mi Calm Calm - N/A   Clear
6:53 PM 28.9 °F - 27.0 °F 92% 30.46 in 10.0 mi Calm Calm - N/A   Clear
7:47 PM 24.8 °F - 23.0 °F 93% 30.38 in 1.5 mi Calm Calm - N/A   Clear
7:53 PM 24.1 °F - 21.9 °F 91% 30.46 in 0.8 mi Calm Calm - N/A   Clear
8:07 PM 24.8 °F 19.1 °F 23.0 °F 93% 30.39 in 1.5 mi NNW 4.6 mph - N/A   Clear
8:11 PM 24.8 °F 19.1 °F 23.0 °F 93% 30.40 in 3.0 mi NNW 4.6 mph - N/A   Clear
8:53 PM 24.1 °F - 21.9 °F 91% 30.45 in 10.0 mi Calm Calm - N/A   Clear
9:53 PM 24.1 °F - 23.0 °F 96% 30.46 in 6.0 mi Calm Calm - N/A   Clear
11:53 PM 23.0 °F - 19.9 °F 88% 30.45 in 8.0 mi Calm Calm - N/A   Mostly Cloudy